Date String (YYYY-MM-DD hh:mm:ss) UTC,Instrument flags,absolute air pressure of the measurement (hPa),sample flow rate (lpm),inlet stack bypass flow (lpm),air temperature of the measurement (°C),ambient temperature measured by the external sensor (°C),aerosol sample conditioner tube jacket temperature (°C),OPC LED temperature (°C),internal box temperature (°C),relative humidity of the measurement (%),span deviation,mass concentration of particles derived from Lorenz-Mie calculation of OPC scattering (μg/m³),mass concentration of particles derived from Lorenz-Mie calculation of OPC scattering (μg/m³),mass concentration of particles derived from Lorenz-Mie calculation of OPC scattering (μg/m³)
DateTimeUTC,F1_M11,P_M11,Q1_M11,Q2_M11,T1_M11,T2_M11,T3_M11,T4_M11,T5_M11,U1_M11,ZSPAN_M11,X2_M11,X0_M11,X1_M11
2023-12-27 19:00:00,SystemResetWarning,0831.2,5.01,000.00,020.7,020.2,000.0,028.8,022.1,11.4,0000.0,0000.63,0001.96,0000.43
2023-12-27 19:01:00,SystemResetWarning,0831.2,5.01,000.00,020.7,020.2,000.0,028.8,022.1,11.4,0000.0,0000.60,0001.58,0000.43
2023-12-27 19:02:00,SystemResetWarning,0831.1,5.01,000.00,020.7,020.2,000.0,028.9,022.2,11.3,0000.0,0000.57,0001.53,0000.41
2023-12-27 19:03:00,SystemResetWarning,0831.1,5.00,000.00,020.7,020.2,000.0,028.9,022.2,11.3,0000.0,0000.58,0001.42,0000.42
2023-12-27 19:04:00,SystemResetWarning,0831.2,5.00,000.00,020.7,020.3,000.0,028.9,022.2,11.4,0000.0,0000.58,0001.38,0000.41
2023-12-27 19:05:00,SystemResetWarning,0831.1,5.00,000.00,020.8,020.3,000.0,028.9,022.2,11.2,0000.0,0000.57,0000.99,0000.40
2023-12-27 19:06:00,SystemResetWarning,0831.1,5.00,000.00,020.8,020.3,000.0,028.9,022.2,11.1,0000.0,0000.55,0000.92,0000.39
2023-12-27 19:07:00,SystemResetWarning,0831.1,5.00,000.00,020.8,020.3,000.0,028.9,022.3,11.1,0000.0,0000.54,0000.92,0000.39
2023-12-27 19:08:00,SystemResetWarning,0831.1,5.00,000.00,020.8,020.3,000.0,029.0,022.3,10.9,0000.0,0000.53,0000.91,0000.38
2023-12-27 19:09:00,SystemResetWarning,0831.1,4.99,000.00,020.8,020.3,000.0,029.0,022.3,10.9,0000.0,0000.52,0000.87,0000.38
2023-12-27 19:10:00,SystemResetWarning,0831.1,5.00,000.00,020.8,020.3,000.0,029.0,022.3,11.1,0000.0,0000.51,0000.87,0000.38
2023-12-27 19:11:00,SystemResetWarning,0831.1,5.00,000.00,020.9,020.4,000.0,029.0,022.3,10.8,0000.0,0000.52,0000.90,0000.37
2023-12-27 19:12:00,SystemResetWarning,0831.0,5.00,000.00,020.9,020.4,000.0,029.0,022.3,10.6,0000.0,0000.54,0001.34,0000.37
2023-12-27 19:13:00,SystemResetWarning,0831.1,5.00,000.00,020.9,020.4,000.0,029.0,022.3,10.7,0000.0,0000.57,0001.54,0000.37
2023-12-27 19:14:00,SystemResetWarning,0830.9,5.00,000.00,020.9,020.4,000.0,029.1,022.3,10.9,0000.0,0000.55,0001.52,0000.37
2023-12-27 19:15:00,SystemResetWarning,0830.9,5.01,000.00,020.9,020.4,000.0,029.1,022.3,10.9,0000.0,0000.54,0001.44,0000.36
2023-12-27 19:16:00,SystemResetWarning,0831.0,5.00,000.00,020.9,020.4,000.0,029.1,022.3,10.7,0000.0,0000.54,0001.44,0000.36
2023-12-27 19:17:00,SystemResetWarning,0831.0,5.00,000.00,020.9,020.4,000.0,029.1,022.3,10.6,0000.0,0000.55,0001.46,0000.36
2023-12-27 19:18:00,SystemResetWarning,0830.9,5.00,000.00,020.9,020.4,000.0,029.1,022.4,10.6,0000.0,0000.54,0001.44,0000.36
2023-12-27 19:19:00,SystemResetWarning,0830.9,5.00,000.00,021.0,020.4,000.0,029.1,022.4,10.6,0000.0,0000.53,0001.41,0000.35
2023-12-27 19:20:00,SystemResetWarning,0830.9,5.01,000.00,021.0,020.4,000.0,029.1,022.4,10.8,0000.0,0000.56,0001.50,0000.35
2023-12-27 19:21:00,SystemResetWarning,0831.0,5.01,000.00,021.0,020.5,000.0,029.1,022.4,11.0,0000.0,0000.57,0001.55,0000.35
2023-12-27 19:22:00,SystemResetWarning,0830.9,5.01,000.00,021.0,020.5,000.0,029.2,022.5,10.9,0000.0,0000.57,0001.56,0000.35
2023-12-27 19:23:00,SystemResetWarning,0831.0,4.99,000.00,021.0,020.5,000.0,029.2,022.5,10.6,0000.0,0000.55,0001.19,0000.35
2023-12-27 19:24:00,SystemResetWarning,0830.9,4.99,000.00,021.0,020.5,000.0,029.2,022.5,10.8,0000.0,0000.53,0000.91,0000.35
2023-12-27 19:25:00,SystemResetWarning,0830.9,4.99,000.00,021.1,020.5,000.0,029.2,022.5,11.2,0000.0,0000.53,0000.91,0000.35
2023-12-27 19:26:00,SystemResetWarning,0830.9,5.01,000.00,021.1,020.6,000.0,029.2,022.5,11.4,0000.0,0000.52,0000.88,0000.35
2023-12-27 19:27:00,SystemResetWarning,0830.9,5.01,000.00,021.1,020.6,000.0,029.2,022.6,11.5,0000.0,0000.52,0001.15,0000.35
2023-12-27 19:28:00,SystemResetWarning,0830.9,5.00,000.00,021.1,020.6,000.0,029.3,022.6,11.7,0000.0,0000.52,0001.24,0000.34
2023-12-27 19:29:00,SystemResetWarning,0830.9,4.99,000.00,021.1,020.6,000.0,029.3,022.6,11.3,0000.0,0000.55,0001.28,0000.35
2023-12-27 19:30:00,SystemResetWarning,0830.9,4.99,000.00,021.1,020.6,000.0,029.3,022.6,11.3,0000.0,0000.58,0001.34,0000.36
2023-12-27 19:31:00,SystemResetWarning,0830.9,5.00,000.00,021.2,020.7,000.0,029.3,022.6,11.4,0000.0,0000.57,0001.33,0000.36
2023-12-27 19:32:00,SystemResetWarning,0830.8,4.99,000.00,021.2,020.7,000.0,029.3,022.6,11.6,0000.0,0000.59,0001.40,0000.36
2023-12-27 19:33:00,SystemResetWarning,0830.8,5.01,000.00,021.2,020.7,000.0,029.3,022.7,11.3,0000.0,0000.61,0001.41,0000.37
2023-12-27 19:34:00,SystemResetWarning,0830.9,5.00,000.00,021.2,020.7,000.0,029.4,022.7,11.3,0000.0,0000.66,0001.51,0000.39
2023-12-27 19:35:00,SystemResetWarning,0830.8,5.01,000.00,021.2,020.7,000.0,029.4,022.7,11.2,0000.0,0000.69,0001.55,0000.42
2023-12-27 19:36:00,SystemResetWarning,0830.8,5.00,000.00,021.2,020.7,000.0,029.4,022.7,11.2,0000.0,0000.72,0001.70,0000.45
2023-12-27 19:37:00,SystemResetWarning,0830.9,4.99,000.00,021.3,020.8,000.0,029.4,022.7,11.2,0000.0,0000.75,0001.76,0000.47
2023-12-27 19:38:00,SystemResetWarning,0830.8,4.99,000.00,021.3,020.8,000.0,029.4,022.8,11.0,0000.0,0000.82,0001.70,0000.49
2023-12-27 19:39:00,SystemResetWarning,0830.8,4.99,000.00,021.3,020.8,000.0,029.4,022.8,10.8,0000.0,0000.82,0001.55,0000.51
2023-12-27 19:40:00,SystemResetWarning,0830.7,5.00,000.00,021.3,020.8,000.0,029.5,022.8,10.7,0000.0,0000.83,0001.58,0000.54
2023-12-27 19:41:00,SystemResetWarning,0830.7,5.00,000.00,021.3,020.8,000.0,029.5,022.8,10.5,0000.0,0000.84,0001.58,0000.55
2023-12-27 19:42:00,SystemResetWarning,0830.7,5.01,000.00,021.3,020.9,000.0,029.5,022.8,10.5,0000.0,0000.86,0001.61,0000.57
2023-12-27 19:43:00,SystemResetWarning,0830.7,5.01,000.00,021.4,020.9,000.0,029.5,022.8,10.8,0000.0,0000.85,0001.51,0000.59
2023-12-27 19:44:00,SystemResetWarning,0830.7,4.99,000.00,021.4,020.9,000.0,029.5,022.9,10.9,0000.0,0000.86,0001.55,0000.61
2023-12-27 19:45:00,SystemResetWarning,0830.7,4.99,000.00,021.4,020.9,000.0,029.5,022.9,10.8,0000.0,0000.89,0001.70,0000.61
2023-12-27 19:46:00,SystemResetWarning,0830.7,5.00,000.00,021.4,020.9,000.0,029.6,022.9,10.9,0000.0,0000.90,0001.74,0000.61
2023-12-27 19:47:00,SystemResetWarning,0830.7,5.01,000.00,021.5,021.0,000.0,029.6,022.9,10.8,0000.0,0000.91,0001.70,0000.60
2023-12-27 19:48:00,SystemResetWarning,0830.7,5.01,000.00,021.5,021.0,000.0,029.6,022.9,10.7,0000.0,0000.88,0001.63,0000.59
2023-12-27 19:49:00,SystemResetWarning,0830.7,5.01,000.00,021.5,021.0,000.0,029.6,022.9,10.6,0000.0,0000.82,0001.50,0000.58
2023-12-27 19:50:00,SystemResetWarning,0830.7,5.00,000.00,021.5,021.0,000.0,029.6,022.9,10.4,0000.0,0000.84,0001.54,0000.57
2023-12-27 19:51:00,SystemResetWarning,0830.7,5.00,000.00,021.5,021.0,000.0,029.6,023.0,10.4,0000.0,0000.81,0001.48,0000.56
2023-12-27 19:52:00,SystemResetWarning,0830.7,4.99,000.00,021.5,021.0,000.0,029.7,023.0,10.4,0000.0,0000.82,0001.52,0000.56
2023-12-27 19:53:00,SystemResetWarning,0830.7,4.99,000.00,021.5,021.0,000.0,029.7,023.0,10.4,0000.0,0000.82,0001.52,0000.56
2023-12-27 19:54:00,SystemResetWarning,0830.7,5.00,000.00,021.6,021.1,000.0,029.7,023.0,10.4,0000.0,0000.83,0001.53,0000.56
2023-12-27 19:55:00,SystemResetWarning,0830.7,5.01,000.00,021.6,021.1,000.0,029.7,023.1,10.2,0000.0,0000.85,0001.57,0000.57
2023-12-27 19:56:00,SystemResetWarning,0830.7,5.01,000.00,021.6,021.1,000.0,029.7,023.1,10.0,0000.0,0000.83,0001.41,0000.58
2023-12-27 19:57:00,SystemResetWarning,0830.7,5.00,000.00,021.6,021.1,000.0,029.7,023.1,10.0,0000.0,0000.84,0001.50,0000.58
2023-12-27 19:58:00,SystemResetWarning,0830.7,5.00,000.00,021.6,021.1,000.0,029.8,023.1,9.8,0000.0,0000.84,0001.50,0000.58
2023-12-27 19:59:00,SystemResetWarning,0830.8,5.00,000.00,021.7,021.2,000.0,029.8,023.1,10.0,0000.0,0000.88,0001.62,0000.59
